TimeCDT,TemperatureF,Dew PointF,Humidity,Sea Level PressureIn,VisibilityMPH,Wind Direction,Wind SpeedMPH,Gust SpeedMPH,PrecipitationIn,Events,Conditions,WindDirDegrees,DateUTC
12:15 AM,65.1,54.9,69,30.07,10.0,SSE,10.4,23.0,N/A,,Clear,160,2013-03-29 05:15:00
12:35 AM,64.6,55.0,71,30.06,10.0,South,11.5,21.9,N/A,,Clear,170,2013-03-29 05:35:00
12:55 AM,64.4,55.0,72,30.07,10.0,South,11.5,19.6,N/A,,Clear,170,2013-03-29 05:55:00
1:15 AM,63.9,55.4,74,30.07,10.0,South,10.4,18.4,N/A,,Clear,170,2013-03-29 06:15:00
1:35 AM,63.7,55.4,74,30.07,10.0,South,12.7,19.6,N/A,,Clear,170,2013-03-29 06:35:00
1:55 AM,63.5,55.6,75,30.07,10.0,South,13.8,18.4,N/A,,Clear,180,2013-03-29 06:55:00
2:15 AM,63.1,55.6,76,30.08,10.0,South,11.5,17.3,N/A,,Clear,170,2013-03-29 07:15:00
2:35 AM,62.8,55.6,77,30.08,10.0,South,8.1,-,N/A,,Clear,170,2013-03-29 07:35:00
2:55 AM,62.2,55.6,79,30.08,10.0,South,9.2,-,N/A,,Clear,170,2013-03-29 07:55:00
3:15 AM,62.1,55.6,79,30.07,10.0,South,8.1,-,N/A,,Clear,170,2013-03-29 08:15:00
3:35 AM,61.7,55.6,80,30.07,10.0,South,6.9,-,N/A,,Clear,170,2013-03-29 08:35:00
3:55 AM,61.2,55.4,81,30.06,10.0,SSE,6.9,-,N/A,,Clear,160,2013-03-29 08:55:00
4:15 AM,61.0,55.4,82,30.05,10.0,SSE,8.1,-,N/A,,Clear,160,2013-03-29 09:15:00
4:35 AM,60.4,55.4,83,30.04,10.0,SSE,9.2,-,N/A,,Clear,160,2013-03-29 09:35:00
4:55 AM,60.3,55.4,84,30.04,10.0,SSE,6.9,-,N/A,,Clear,160,2013-03-29 09:55:00
5:15 AM,59.9,55.2,84,30.05,10.0,SE,4.6,-,N/A,,Clear,140,2013-03-29 10:15:00
5:35 AM,59.0,54.9,86,30.06,10.0,SE,6.9,-,N/A,,Clear,140,2013-03-29 10:35:00
5:55 AM,59.0,55.0,87,30.07,10.0,SE,8.1,-,N/A,,Clear,140,2013-03-29 10:55:00
6:15 AM,59.2,55.0,86,30.07,10.0,SSE,8.1,-,N/A,,Clear,150,2013-03-29 11:15:00
6:35 AM,58.6,54.9,87,30.07,10.0,SE,6.9,-,N/A,,Clear,140,2013-03-29 11:35:00
6:55 AM,58.6,54.9,87,30.08,10.0,SE,6.9,-,N/A,,Clear,140,2013-03-29 11:55:00
7:15 AM,58.6,54.9,87,30.08,10.0,SE,6.9,-,N/A,,Clear,140,2013-03-29 12:15:00
7:35 AM,58.5,54.9,88,30.10,10.0,ESE,5.8,-,N/A,,Clear,120,2013-03-29 12:35:00
7:55 AM,58.3,54.7,88,30.10,10.0,ESE,5.8,-,N/A,,Clear,120,2013-03-29 12:55:00
8:15 AM,59.0,55.0,87,30.10,10.0,SE,6.9,-,N/A,,Mostly Cloudy,130,2013-03-29 13:15:00
8:35 AM,60.3,55.4,84,30.10,10.0,ESE,6.9,-,N/A,,Scattered Clouds,120,2013-03-29 13:35:00
8:55 AM,62.4,55.8,79,30.11,10.0,SE,9.2,-,N/A,,Clear,130,2013-03-29 13:55:00
9:15 AM,63.5,56.3,77,30.11,10.0,ESE,9.2,-,N/A,,Clear,120,2013-03-29 14:15:00
9:35 AM,65.3,56.3,73,30.11,10.0,SE,10.4,17.3,N/A,,Clear,140,2013-03-29 14:35:00
9:55 AM,66.2,56.3,70,30.12,10.0,SE,9.2,-,N/A,,Scattered Clouds,130,2013-03-29 14:55:00
10:15 AM,67.1,56.3,68,30.12,10.0,SSE,10.4,-,N/A,,Scattered Clouds,160,2013-03-29 15:15:00
10:35 AM,67.8,56.5,67,30.12,10.0,SE,11.5,-,N/A,,Scattered Clouds,140,2013-03-29 15:35:00
10:55 AM,67.3,56.3,68,30.12,10.0,SSE,10.4,-,N/A,,Mostly Cloudy,160,2013-03-29 15:55:00
11:15 AM,68.0,56.3,66,30.12,10.0,SSE,9.2,-,N/A,,Overcast,160,2013-03-29 16:15:00
11:35 AM,67.6,55.8,66,30.11,10.0,SSE,9.2,-,N/A,,Overcast,150,2013-03-29 16:35:00
11:55 AM,70.2,55.8,60,30.11,10.0,South,10.4,-,N/A,,Mostly Cloudy,170,2013-03-29 16:55:00
12:15 PM,72.0,55.6,56,30.10,10.0,South,11.5,19.6,N/A,,Scattered Clouds,170,2013-03-29 17:15:00
12:35 PM,73.6,55.4,53,30.10,10.0,SSE,11.5,20.7,N/A,,Scattered Clouds,160,2013-03-29 17:35:00
12:55 PM,73.9,55.4,52,30.08,10.0,SSE,8.1,16.1,N/A,,Scattered Clouds,150,2013-03-29 17:55:00
1:15 PM,75.2,55.4,50,30.07,10.0,South,11.5,18.4,N/A,,Scattered Clouds,170,2013-03-29 18:15:00
1:35 PM,76.5,54.9,47,30.06,10.0,South,12.7,18.4,N/A,,Clear,180,2013-03-29 18:35:00
1:55 PM,77.0,54.7,46,30.05,10.0,South,15.0,23.0,N/A,,Clear,180,2013-03-29 18:55:00
2:15 PM,78.4,54.5,43,30.04,10.0,South,13.8,20.7,N/A,,Clear,190,2013-03-29 19:15:00
2:35 PM,77.7,53.8,43,30.03,10.0,South,9.2,18.4,N/A,,Clear,170,2013-03-29 19:35:00
2:55 PM,79.2,53.4,41,30.01,10.0,SE,10.4,20.7,N/A,,Clear,130,2013-03-29 19:55:00
3:15 PM,80.1,53.2,39,30.01,10.0,South,11.5,20.7,N/A,,Clear,180,2013-03-29 20:15:00
3:35 PM,79.9,52.9,39,30.00,10.0,South,12.7,21.9,N/A,,Clear,170,2013-03-29 20:35:00
3:55 PM,80.4,53.1,39,29.99,10.0,SSE,13.8,19.6,N/A,,Clear,150,2013-03-29 20:55:00
4:15 PM,79.2,52.9,40,29.98,10.0,SSE,11.5,17.3,N/A,,Clear,150,2013-03-29 21:15:00
4:35 PM,80.4,52.5,38,29.98,10.0,SSE,12.7,20.7,N/A,,Clear,150,2013-03-29 21:35:00
4:55 PM,78.3,52.9,41,29.99,10.0,SSE,11.5,23.0,N/A,,Clear,160,2013-03-29 21:55:00
5:15 PM,78.4,52.7,41,29.99,10.0,SSE,12.7,20.7,N/A,,Clear,160,2013-03-29 22:15:00
5:35 PM,78.3,52.3,40,30.01,10.0,South,10.4,19.6,N/A,,Scattered Clouds,180,2013-03-29 22:35:00
5:55 PM,77.0,52.7,43,30.01,10.0,SSE,10.4,17.3,N/A,,Overcast,150,2013-03-29 22:55:00
6:15 PM,76.5,52.7,43,30.01,10.0,SSE,10.4,-,N/A,,Mostly Cloudy,150,2013-03-29 23:15:00
6:35 PM,76.1,52.7,44,29.99,10.0,SE,9.2,-,N/A,,Scattered Clouds,140,2013-03-29 23:35:00
6:55 PM,75.6,52.7,45,29.99,10.0,SE,8.1,-,N/A,,Clear,140,2013-03-29 23:55:00
7:15 PM,75.4,52.7,45,29.98,10.0,SSE,8.1,-,N/A,,Clear,150,2013-03-30 00:15:00
7:35 PM,74.8,52.7,46,29.99,10.0,SE,6.9,-,N/A,,Clear,140,2013-03-30 00:35:00
7:55 PM,74.5,52.9,47,29.99,10.0,SSE,10.4,-,N/A,,Clear,150,2013-03-30 00:55:00
8:15 PM,74.1,53.4,48,29.98,10.0,SSE,10.4,-,N/A,Rain,Light Rain,150,2013-03-30 01:15:00
8:35 PM,73.4,53.2,49,29.96,10.0,SSE,12.7,19.6,N/A,,Mostly Cloudy,150,2013-03-30 01:35:00
8:55 PM,73.4,52.9,49,29.94,10.0,SSE,17.3,25.3,N/A,,Clear,150,2013-03-30 01:55:00
9:15 PM,72.5,53.6,51,29.95,10.0,SE,11.5,24.2,N/A,,Clear,140,2013-03-30 02:15:00
9:35 PM,71.6,54.0,54,29.96,10.0,SE,10.4,17.3,N/A,,Clear,130,2013-03-30 02:35:00
9:55 PM,70.7,54.1,56,29.98,10.0,SE,9.2,-,N/A,,Clear,140,2013-03-30 02:55:00
10:15 PM,70.0,54.5,58,30.00,10.0,SE,5.8,-,N/A,,Clear,140,2013-03-30 03:15:00
10:35 PM,70.0,54.5,58,30.01,10.0,SSE,6.9,-,N/A,,Scattered Clouds,150,2013-03-30 03:35:00
10:55 PM,69.6,54.7,59,30.06,10.0,NNW,6.9,-,N/A,,Mostly Cloudy,330,2013-03-30 03:55:00
11:15 PM,62.8,53.4,71,30.05,10.0,North,13.8,21.9,N/A,Rain,Light Rain,360,2013-03-30 04:15:00